Location: Hope
(40.9110°N, 74.9680°W)
Time: 00:10:40
(UTC-04:00)

VELOX 1 - Pass Details

Date: 06 August 2021
Orbit: 626 x 643 km, 98.3° (Epoch: 19 September)

Event Time Altitude Azimuth Distance (km) Brightness Sun altitude
Rises 02:59:18 0° 116° (ESE) 2,937 ? -26.7°
Reaches altitude 10° 03:02:37 10° 89° (E) 2,036 ? -26.4°
Maximum altitude 03:04:37 13° 62° (ENE) 1,846 ? -26.2°
Drops below altitude 10° 03:06:38 10° 35° (NE) 2,045 ? -26.0°
Sets 03:09:58 0° 8° (N) 2,962 ? -25.7°
